Haines, AK

2:28 AM AKST on February 22, 2017 (GMT -0900)
Haines

Weather History for PAHN - April, 2014

Change the Weather History Date:

Tuesday, April 29, 2014

  Actual Average Record
Temperature  
Mean Temperature 46 °F -  
Max Temperature 53 °F 50 °F 71 °F (1976)
Min Temperature 39 °F 35 °F 24 °F (2013)
Degree Days  
Heating Degree Days 19    
Moisture  
Dew Point 38 °F    
Average Humidity 83    
Maximum Humidity 97    
Minimum Humidity 52    
Precipitation  
Precipitation 0.22 in - - ()
Sea Level Pressure  
Sea Level Pressure 30.16 in    
Wind  
Wind Speed 6 mph (NNW)    
Max Wind Speed 14 mph    
Max Gust Speed 24 mph    
Visibility 9 miles    
Events Rain    
Averages and records for this station are not official NWS values.
T = Trace of Precipitation, MM = Missing Value Source: NWS Daily Summary

Daily Weather History Graph

Daily Weather History Graph

Search for Another Location

Airport or City:

Trip Planner

Search our weather history database for the weather conditions in past years. The results will help you decide how hot, cold, wet, or windy it might be!

Date:

Astronomy

Apr. 29, 2014 Rise Set
Actual Time 5:08 AM AKDT 8:51 PM AKDT
Civil Twilight 4:18 AM AKDT 9:42 PM AKDT
Nautical Twilight 3:04 AM AKDT 10:58 PM AKDT
Astronomical Twilight 1:31 AM AKDT 12:26 AM AKDT
Moon 5:34 AM AKDT (4/29) 9:45 PM AKDT (4/29)
Length of Visible Light 17h 24m
Length of Day
15h 43m
New Moon, 0% of the Moon is Illuminated
Apr 29
New Moon
May 6
First Quarter
May 14
Full
May 21
Last Quarter
May 28
New

Hourly Weather History & Observations

Time (AKDT) Temp. Windchill Dew Point Humidity Pressure Visibility Wind Dir Wind Speed Gust Speed Precip Events Conditions
12:13 AM 43.0 °F - 41.0 °F 93% 30.05 in 7.0 mi Calm Calm - 0.01 in Rain Light Rain
12:26 AM 43.0 °F - 41.0 °F 93% 30.05 in 7.0 mi Calm Calm - 0.02 in Rain Light Rain
12:54 AM 43.0 °F 40.3 °F 41.0 °F 93% 30.06 in 10.0 mi Variable 4.6 mph - 0.03 in Rain Light Rain
1:28 AM 41.0 °F 36.4 °F 39.9 °F 96% 30.05 in 8.0 mi WNW 6.9 mph - 0.01 in Rain Light Rain
1:54 AM 41.0 °F 35.2 °F 39.0 °F 93% 30.06 in 10.0 mi WNW 9.2 mph - 0.02 in Rain Light Rain
2:47 AM 39.9 °F 33.9 °F 37.9 °F 93% 30.06 in 9.0 mi WNW 9.2 mph - 0.02 in Rain Light Rain
2:54 AM 39.9 °F 33.9 °F 37.9 °F 93% 30.07 in 8.0 mi WNW 9.2 mph - 0.03 in Rain Light Rain
3:11 AM 39.9 °F 33.4 °F 37.9 °F 93% 30.06 in 9.0 mi WNW 10.4 mph - 0.00 in Rain Light Rain
3:20 AM 39.9 °F 32.9 °F 37.9 °F 93% 30.06 in 9.0 mi WNW 11.5 mph - 0.01 in Rain Light Rain
3:54 AM 39.0 °F 32.8 °F 37.0 °F 93% 30.07 in 10.0 mi WNW 9.2 mph - 0.01 in Rain Light Rain
4:04 AM 39.0 °F 33.4 °F 37.0 °F 93% 30.06 in 10.0 mi WNW 8.1 mph - 0.01 in Rain Light Rain
4:34 AM 39.0 °F 33.4 °F 37.0 °F 93% 30.07 in 8.0 mi WNW 8.1 mph - 0.02 in Rain Light Rain
4:54 AM 39.0 °F 34.8 °F 37.0 °F 93% 30.09 in 9.0 mi WNW 5.8 mph - 0.02 in Rain Light Rain
5:03 AM 39.0 °F 34.0 °F 37.0 °F 93% 30.08 in 9.0 mi NW 6.9 mph - 0.01 in Rain Light Rain
5:54 AM 39.0 °F 34.0 °F 37.9 °F 96% 30.10 in 7.0 mi WNW 6.9 mph - 0.02 in Rain Light Rain
6:09 AM 39.0 °F 34.8 °F 37.0 °F 93% 30.10 in 10.0 mi WNW 5.8 mph - 0.00 in Rain Light Rain
6:18 AM 39.0 °F - 37.9 °F 96% 30.09 in 10.0 mi Calm Calm - 0.01 in Rain Light Rain
6:28 AM 39.0 °F 34.8 °F 37.0 °F 93% 30.10 in 10.0 mi NW 5.8 mph - 0.01 in Rain Light Rain
6:54 AM 39.0 °F 34.8 °F 37.0 °F 93% 30.11 in 10.0 mi NW 5.8 mph - 0.01 in   Mostly Cloudy
7:54 AM 39.9 °F 37.8 °F 37.9 °F 93% 30.13 in 10.0 mi WNW 3.5 mph - 0.00 in Rain Light Rain
8:02 AM 39.9 °F - 39.0 °F 97% 30.13 in 5.0 mi Calm Calm - 0.01 in Rain Light Rain
8:11 AM 39.9 °F 35.8 °F 37.9 °F 93% 30.13 in 4.0 mi NE 5.8 mph - 0.03 in Rain Light Rain
8:34 AM 44.1 °F 40.1 °F 41.0 °F 89% 30.14 in 8.0 mi Variable 6.9 mph - 0.04 in Rain Light Rain
8:51 AM 42.8 °F 37.5 °F 41.0 °F 93% 30.16 in 6.0 mi East 9.2 mph - 0.05 in Rain Light Rain
8:54 AM 44.1 °F 39.5 °F 41.0 °F 89% 30.17 in 6.0 mi East 8.1 mph - 0.06 in Rain Light Rain
9:54 AM 45.0 °F 39.3 °F 41.0 °F 86% 30.20 in 9.0 mi ENE 11.5 mph 20.7 mph 0.01 in Rain Light Rain
10:06 AM 45.0 °F 38.9 °F 41.0 °F 86% 30.19 in 10.0 mi ENE 12.7 mph 19.6 mph 0.01 in Rain Light Rain
10:54 AM 46.9 °F - 42.1 °F 83% 30.22 in 10.0 mi East 9.2 mph 18.4 mph 0.01 in Rain Light Rain
11:54 AM 48.9 °F - 39.9 °F 71% 30.25 in 10.0 mi East 13.8 mph 24.2 mph 0.00 in   Overcast
12:54 PM 51.1 °F - 39.0 °F 63% 30.26 in 10.0 mi ESE 12.7 mph 23.0 mph N/A   Mostly Cloudy
1:54 PM 51.1 °F - 39.0 °F 63% 30.27 in 10.0 mi East 10.4 mph 20.7 mph N/A   Scattered Clouds
2:54 PM 53.1 °F - 36.0 °F 52% 30.28 in 10.0 mi ESE 11.5 mph 19.6 mph N/A   Partly Cloudy
3:54 PM 51.1 °F - 37.9 °F 61% 30.28 in 10.0 mi ESE 9.2 mph - N/A   Mostly Cloudy
4:54 PM 50.0 °F - 37.9 °F 63% 30.28 in 10.0 mi SE 5.8 mph - N/A   Scattered Clouds
5:54 PM 51.1 °F - 41.0 °F 68% 30.26 in 10.0 mi SSE 4.6 mph - N/A   Clear
6:54 PM 51.1 °F - 34.0 °F 52% 30.26 in 10.0 mi East 3.5 mph - N/A   Clear
7:54 PM 46.0 °F - 37.9 °F 73% 30.27 in 10.0 mi Calm Calm - N/A   Clear
8:54 PM 42.1 °F - 37.0 °F 82% 30.28 in 10.0 mi Calm Calm - N/A   Clear
9:54 PM 46.0 °F 42.5 °F 30.0 °F 54% 30.29 in 10.0 mi NW 6.9 mph - N/A   Clear
10:54 PM 39.9 °F - 32.0 °F 73% 30.30 in 10.0 mi Calm Calm - N/A   Clear
11:54 PM 43.0 °F 38.8 °F 30.0 °F 60% 30.29 in 10.0 mi NW 6.9 mph - N/A   Clear